Portada
METAR-TAF:

METAR-TAF

Aeroports :

Albert, França

latitud: 49-58-21N, longitud: 002-41-29E, altitud: 111 m

Observació

L'informe es va fer fa 15 minuts, a les 16:30 UTC
Vent 9 kt del Sud/Sud-Oest
Temperatura 9°C
Humitat 87%
Pressió 1016 hPa
Visibilitat 10 km o més
Núvols disperses a una alçada de 2700 ft
Cel cobert a una alçada de 3500 ft

METAR: LFAQ 071630Z AUTO 21009KT 9999 SCT027 OVC035 09/07 Q1016 NOSIG

Hora: 17:45 (16:45 UTC)

Pronòstic

L'informe es va fer fa 2 hores i 45 minuts, a les 14:00 UTC
Pronòstic vàlid del 07 a les 15 UTC al 07 a les 24 UTC
Vent 12 kt del Sud-Oest
Visibilitat 10 km o més
Cel ennuvolat a una alçada de 2000 ft
Probabilitat 30% :
Temporalment
l' 07 a les 19 UTC al 07 a les 24 UTC
Cel ennuvolat a una alçada de 1200 ft

TAF: LFAQ 071400Z 0715/0724 22012KT 9999 BKN020 PROB30 TEMPO 0719/0724 BKN012

Observacions i pronòstics meteorològics de més de 4000 aeroports (METAR i TAF).

Les estacions disponibles són els punts grocs i vermells al mapa.

Posi el ratolí al punt desitjat per veure el nom de l'estació.

Feu clic per veure les observacions i els pronòstics meteorològics.

Per canviar el mapa: feu clic els botons verds amb una creu de color negre per apropar; al botó verd amb un guió per allunyar la imatge; o en les fletxes verdes per a mapes adjacents.


METAR-TAF: